When you browse on this site, cookies collect data to enhance your experience and personalize the content and advertising you see.
Visit our Privacy Policy to learn more. By continuing to use the site, you agree to this use of cookies and data.
  • In Latvia
  • List of Countries
  • For 7 days
  • Water Temperature
  • Satellite Maps
  • Weather Map
  • Weather Widgets
  • user-avatar
    Login

    Hourly Weather Mingachevir

    Today, 16 July, Tuesday

    Time Temperature Precipitation Wind Pressure Humidity
    00:00 +23°C° 0 mm 0 mps 744 mmHg 69%
    01:00 +25°C° 0 mm 1 mps 744 mmHg 70%
    02:00 +25°C° 0 mm 1 mps 745 mmHg 71%
    03:00 +25°C° 0 mm 1 mps 745 mmHg 73%
    04:00 +25°C° 0 mm 2 mps 745 mmHg 70%
    05:00 +26°C° 0 mm 2 mps 745 mmHg 68%
    06:00 +27°C° 0 mm 2 mps 745 mmHg 65%
    07:00 +28°C° 0 mm 3 mps 745 mmHg 57%
    08:00 +30°C° 0 mm 4 mps 745 mmHg 49%
    09:00 +33°C° 0 mm 4 mps 745 mmHg 41%
    10:00 +34°C° 0 mm 4 mps 744 mmHg 37%
    11:00 +36°C° 0 mm 4 mps 744 mmHg 33%
    12:00 +37°C° 0 mm 4 mps 744 mmHg 30%
    13:00 +38°C° 0 mm 4 mps 744 mmHg 28%
    14:00 +38°C° 0 mm 4 mps 743 mmHg 26%
    15:00 +40°C° 0 mm 4 mps 743 mmHg 24%
    16:00 +39°C° 0 mm 3 mps 743 mmHg 25%
    17:00 +38°C° 0 mm 3 mps 743 mmHg 26%
    18:00 +38°C° 0 mm 2 mps 744 mmHg 27%
    19:00 +36°C° 0 mm 2 mps 744 mmHg 31%
    20:00 +34°C° 0 mm 2 mps 745 mmHg 35%
    21:00 +31°C° 0 mm 2 mps 745 mmHg 39%
    22:00 +30°C° 0 mm 2 mps 745 mmHg 45%
    23:00 +29°C° 0 mm 2 mps 745 mmHg 52%

    Tomorrow, 17 July, Wednesday

    Time Temperature Precipitation Wind Pressure Humidity
    00:00 +28°C° 0 mm 1 mps 746 mmHg 59%
    01:00 +27°C° 0 mm 1 mps 746 mmHg 59%
    02:00 +27°C° 0 mm 2 mps 746 mmHg 59%
    03:00 +26°C° 0 mm 2 mps 745 mmHg 58%
    04:00 +26°C° 0 mm 2 mps 746 mmHg 57%
    05:00 +27°C° 0 mm 2 mps 746 mmHg 56%
    06:00 +27°C° 0 mm 2 mps 746 mmHg 55%
    07:00 +29°C° 0 mm 2 mps 746 mmHg 51%
    08:00 +30°C° 0 mm 2 mps 746 mmHg 47%
    09:00 +32°C° 0 mm 2 mps 746 mmHg 43%
    10:00 +34°C° 0 mm 3 mps 746 mmHg 41%
    11:00 +35°C° 0 mm 4 mps 746 mmHg 39%
    12:00 +37°C° 0 mm 4 mps 745 mmHg 37%
    13:00 +39°C° 0 mm 5 mps 745 mmHg 35%
    14:00 +40°C° 0 mm 5 mps 745 mmHg 33%
    15:00 +40°C° 0 mm 6 mps 744 mmHg 32%
    16:00 +39°C° 0 mm 6 mps 744 mmHg 34%
    17:00 +38°C° 0 mm 7 mps 744 mmHg 36%
    18:00 +37°C° 0 mm 8 mps 744 mmHg 39%
    19:00 +34°C° 0 mm 7 mps 745 mmHg 42%
    20:00 +33°C° 0 mm 7 mps 746 mmHg 46%
    21:00 +30°C° 0 mm 6 mps 746 mmHg 49%
    22:00 +29°C° 0 mm 6 mps 746 mmHg 52%
    23:00 +28°C° 0 mm 6 mps 746 mmHg 54%

    Day after tomorrow, 18 July, Thursday

    Time Temperature Precipitation Wind Pressure Humidity
    00:00 +27°C° 0 mm 5 mps 746 mmHg 57%
    01:00 +27°C° 0 mm 4 mps 746 mmHg 60%
    02:00 +26°C° 0 mm 4 mps 746 mmHg 63%
    03:00 +26°C° 0 mm 3 mps 746 mmHg 66%
    04:00 +26°C° 0 mm 3 mps 746 mmHg 63%
    05:00 +27°C° 0 mm 3 mps 746 mmHg 61%
    06:00 +27°C° 0 mm 2 mps 746 mmHg 59%
    07:00 +29°C° 0 mm 3 mps 746 mmHg 54%
    08:00 +30°C° 0 mm 3 mps 746 mmHg 49%
    09:00 +33°C° 0 mm 4 mps 746 mmHg 44%
    10:00 +34°C° 0 mm 4 mps 746 mmHg 41%
    11:00 +36°C° 0 mm 4 mps 745 mmHg 38%
    12:00 +37°C° 0 mm 4 mps 745 mmHg 35%
    13:00 +38°C° 0 mm 4 mps 744 mmHg 33%
    14:00 +40°C° 0 mm 4 mps 744 mmHg 31%
    15:00 +40°C° 0 mm 4 mps 744 mmHg 29%
    16:00 +39°C° 0 mm 3 mps 744 mmHg 30%
    17:00 +39°C° 0 mm 3 mps 744 mmHg 31%
    18:00 +38°C° 0 mm 2 mps 744 mmHg 31%
    19:00 +36°C° 0 mm 3 mps 744 mmHg 35%
    20:00 +34°C° 0 mm 4 mps 745 mmHg 38%
    21:00 +32°C° 0 mm 4 mps 745 mmHg 41%
    22:00 +30°C° 0 mm 4 mps 745 mmHg 44%
    23:00 +29°C° 0 mm 3 mps 745 mmHg 46%

    19 July, Friday

    Time Temperature Precipitation Wind Pressure Humidity
    00:00 +28°C° 0 mm 3 mps 745 mmHg 48%
    01:00 +28°C° 0 mm 2 mps 746 mmHg 50%
    02:00 +27°C° 0 mm 2 mps 746 mmHg 52%
    03:00 +27°C° 0 mm 2 mps 746 mmHg 54%
    04:00 +27°C° 0 mm 2 mps 746 mmHg 55%
    05:00 +28°C° 0 mm 3 mps 747 mmHg 56%
    06:00 +28°C° 0 mm 3 mps 747 mmHg 56%
    07:00 +30°C° 0 mm 3 mps 747 mmHg 52%
    08:00 +33°C° 0 mm 3 mps 747 mmHg 47%
    09:00 +34°C° 0 mm 4 mps 748 mmHg 42%
    10:00 +35°C° 0 mm 3 mps 747 mmHg 39%
    11:00 +37°C° 0 mm 3 mps 747 mmHg 36%
    12:00 +38°C° 0 mm 2 mps 747 mmHg 32%
    13:00 +39°C° 0 mm 3 mps 747 mmHg 31%
    14:00 +40°C° 0 mm 4 mps 747 mmHg 29%
    15:00 +41°C° 0 mm 4 mps 747 mmHg 28%
    16:00 +41°C° 0 mm 4 mps 747 mmHg 29%
    17:00 +40°C° 0 mm 5 mps 747 mmHg 30%
    18:00 +40°C° 0 mm 5 mps 747 mmHg 31%
    19:00 +37°C° 0 mm 5 mps 748 mmHg 34%
    20:00 +35°C° 0 mm 6 mps 749 mmHg 37%
    21:00 +33°C° 0 mm 7 mps 749 mmHg 40%
    22:00 +33°C° 0 mm 6 mps 750 mmHg 42%
    23:00 +32°C° 0 mm 5 mps 750 mmHg 44%

    20 July, Saturday

    Time Temperature Precipitation Wind Pressure Humidity
    00:00 +30°C° 0 mm 4 mps 750 mmHg 45%
    01:00 +29°C° 0 mm 3 mps 750 mmHg 47%
    02:00 +29°C° 0 mm 2 mps 751 mmHg 49%
    03:00 +28°C° 0 mm 1 mps 751 mmHg 50%
    04:00 +28°C° 0 mm 1 mps 751 mmHg 51%
    05:00 +29°C° 0 mm 1 mps 751 mmHg 51%
    06:00 +29°C° 0 mm 1 mps 752 mmHg 52%
    07:00 +31°C° 0 mm 2 mps 752 mmHg 47%
    08:00 +32°C° 0 mm 2 mps 752 mmHg 41%
    09:00 +35°C° 0 mm 3 mps 752 mmHg 36%
    10:00 +37°C° 0 mm 4 mps 752 mmHg 32%
    11:00 +39°C° 0 mm 5 mps 752 mmHg 29%
    12:00 +41°C° 0 mm 7 mps 752 mmHg 26%
    13:00 +41°C° 0 mm 7 mps 751 mmHg 25%
    14:00 +41°C° 0 mm 7 mps 751 mmHg 25%
    15:00 +43°C° 0 mm 7 mps 751 mmHg 24%
    16:00 +41°C° 0 mm 7 mps 751 mmHg 25%
    17:00 +41°C° 0 mm 8 mps 751 mmHg 26%
    18:00 +40°C° 0 mm 8 mps 751 mmHg 27%
    19:00 +38°C° 0 mm 8 mps 752 mmHg 31%
    20:00 +35°C° 0 mm 8 mps 753 mmHg 35%
    21:00 +33°C° 0 mm 8 mps 753 mmHg 39%
    22:00 +33°C° 0 mm 7 mps 753 mmHg 40%
    23:00 +32°C° 0 mm 6 mps 753 mmHg 41%

    21 July, Sunday

    Time Temperature Precipitation Wind Pressure Humidity
    00:00 +30°C° 0 mm 5 mps 753 mmHg 42%
    01:00 +30°C° 0 mm 5 mps 753 mmHg 44%
    02:00 +29°C° 0 mm 4 mps 753 mmHg 46%
    03:00 +28°C° 0 mm 4 mps 753 mmHg 47%
    04:00 +29°C° 0 mm 4 mps 753 mmHg 47%
    05:00 +29°C° 0 mm 4 mps 753 mmHg 46%
    06:00 +29°C° 0 mm 4 mps 753 mmHg 45%
    07:00 +32°C° 0 mm 5 mps 753 mmHg 41%
    08:00 +34°C° 0 mm 5 mps 753 mmHg 37%
    09:00 +36°C° 0 mm 6 mps 753 mmHg 32%
    10:00 +38°C° 0 mm 6 mps 752 mmHg 30%
    11:00 +39°C° 0 mm 6 mps 752 mmHg 28%
    12:00 +40°C° 0 mm 6 mps 751 mmHg 26%
    13:00 +41°C° 0 mm 6 mps 751 mmHg 25%
    14:00 +41°C° 0 mm 6 mps 750 mmHg 24%
    15:00 +42°C° 0 mm 5 mps 749 mmHg 24%
    16:00 +41°C° 0 mm 5 mps 749 mmHg 25%
    17:00 +41°C° 0 mm 5 mps 749 mmHg 26%
    18:00 +40°C° 0 mm 4 mps 749 mmHg 27%
    19:00 +37°C° 0 mm 4 mps 750 mmHg 30%
    20:00 +35°C° 0 mm 4 mps 750 mmHg 33%
    21:00 +33°C° 0 mm 4 mps 750 mmHg 36%
    22:00 +32°C° 0 mm 4 mps 750 mmHg 39%
    23:00 +30°C° 0 mm 3 mps 750 mmHg 42%
    Show more